User: anonymous   Login
Location: Byszew
(52.1813°N, 19.2693°E)
Time: 17:08:47
(UTC+00:00)
Language:

Meteor 1-11 Rocket - Orbit

View from above orbital plane
View from above orbital plane
View from above satellite
View from above satellite

Ground track
Ground track

The orbit data is extracted from the following two-line orbital elements,

1 05918U 72022B   21127.85281649  .00000009  00000-0 -17495-5 0  9993
2 05918  81.2413  31.5414 0057342 295.5401  63.9845 14.05885774517343
Epoch (UTC): 07 May 2021 20:28:03
Eccentricity: 0.0057342
inclination: 81.2413°
perigee height: 832 km
apogee height: 915 km
right ascension of ascending node: 31.5414°
argument of perigee: 295.5401°
revolutions per day: 14.05885774
mean anomaly at epoch: 63.9845°
orbit number at epoch: 51734

The dashed part of the orbit path shows where the satellite is in the earth's shadow,  

DLR